Wind_Speed
4 4 4 4 5 6 2 5 2 6 7 5 5 6 7 5 7 6 5 5 4 4 4 4 4 3 4 4 5 6 6 6 6 6 7 7 6 6 6 5 5 4 4 3 3 3 3 3 3
6 6 6 6 8 10 6 3 4 8 7 6 7 8 8 7 7 7 6 5 4 5 5 5 5 5 5 5 7 7 8 7 8 8 8 8 8 8 8 7 7 6 6 6 5 5 4 4 4
8 8 8 8 9 12 11 7 9 8 9 9 10 10 10 9 8 7 7 6 5 6 6 6 6 6 7 7 8 9 9 9 9 9 10 10 10 10 10 9 9 9 8 8 7 7 6 6 6
11 11 10 10 9 10 11 11 13 11 11 11 13 12 11 10 9 9 8 7 7 7 7 8 8 8 8 9 9 10 11 11 11 11 11 12 12 12 12 12 11 11 10 10 9 9 9 8 8
14 13 12 12 10 13 15 16 15 13 14 14 14 14 13 11 10 10 9 8 7 7 8 8 8 9 10 10 11 12 12 13 13 13 13 13 14 14 14 14 13 13 12 12 11 11 11 11 11
16 15 13 11 14 15 16 18 18 18 16 17 17 15 12 11 10 10 9 9 8 7 7 8 9 10 11 12 13 13 13 14 14 15 15 15 16 16 16 15 15 14 14 14 14 14 13 13 13
17 17 15 13 16 18 18 21 20 22 19 17 19 19 15 11 10 9 9 9 8 7 9 10 11 12 12 13 14 14 15 15 16 16 17 17 18 19 19 18 17 17 16 17 17 16 15 15 14
17 17 15 13 15 17 20 24 23 23 23 20 21 22 14 12 9 8 8 9 8 9 11 11 13 14 14 15 16 16 17 17 18 18 18 18 19 20 20 20 20 20 19 19 19 18 17 17 16
16 15 13 13 16 18 22 24 24 24 25 25 24 24 18 13 10 9 10 10 10 10 12 12 14 15 16 17 17 18 19 19 19 20 21 21 21 21 20 20 21 21 21 21 21 20 20 19 18
13 13 13 19 23 24 25 25 24 23 23 23 25 25 20 15 13 13 12 12 12 13 13 14 14 16 18 19 20 20 21 21 21 21 23 23 23 22 21 21 22 21 21 21 22 22 22 21 21
11 14 18 22 24 26 26 25 25 25 24 22 20 20 16 15 15 15 14 13 14 14 15 15 15 18 20 20 21 21 22 21 22 23 24 24 24 24 22 23 23 22 22 21 22 23 23 23 23
10 12 15 17 20 21 22 24 24 25 26 23 17 17 16 17 18 16 16 15 16 16 17 17 19 20 21 22 22 22 23 23 23 24 25 24 24 23 24 23 23 22 21 20 20 22 24 25 24
9 10 12 13 14 16 18 20 23 24 23 24 18 15 16 18 19 19 18 16 16 17 19 19 20 22 22 23 22 23 23 23 23 22 22 23 22 22 23 22 22 21 20 20 21 23 24 25 26
7 9 10 10 12 13 15 18 21 23 22 19 17 17 17 18 19 19 17 16 16 17 19 20 21 22 22 23 22 22 22 22 22 20 19 21 22 21 21 21 21 21 21 22 23 23 23 23 25
7 9 10 10 12 12 14 18 18 16 18 18 16 16 18 17 19 18 17 17 16 18 19 20 21 22 22 22 21 21 21 21 20 20 19 20 21 21 22 21 21 22 23 24 24 24 24 23 23
10 12 13 13 12 12 17 16 13 14 14 16 17 17 17 18 18 17 17 17 17 19 20 21 20 21 21 20 20 21 21 21 20 19 20 21 22 22 22 23 23 23 23 24 25 25 24 24 24
13 15 15 14 15 14 16 15 14 14 13 14 16 16 16 17 17 16 15 16 16 18 20 20 20 20 20 20 20 20 20 20 20 20 20 21 22 22 23 23 23 23 24 24 24 24 24 24 25
13 15 16 15 15 15 15 15 11 8 10 11 13 14 14 14 15 15 14 15 16 18 18 18 18 19 19 19 19 19 19 19 20 20 20 21 21 22 23 24 23 24 24 24 24 25 25 26 26
10 12 14 14 14 14 14 14 12 9 6 9 10 11 12 12 13 14 14 15 16 17 17 17 17 18 18 18 19 19 19 19 20 20 20 21 21 22 23 24 24 24 24 25 25 25 26 26 27
9 12 14 12 12 11 11 11 11 9 3 4 7 10 11 11 11 12 13 13 15 15 16 16 17 17 17 17 18 18 19 20 20 20 21 21 22 22 23 23 24 25 25 25 25 26 26 27 27
10 12 13 12 11 10 8 8 8 6 3 4 6 8 9 10 10 10 11 12 13 14 14 14 15 16 17 17 17 18 19 19 20 20 20 21 22 22 23 24 24 25 25 25 25 26 26 27 28
11 11 11 10 10 10 10 10 8 6 6 4 5 6 7 8 9 10 11 11 12 12 13 14 15 15 16 16 16 18 19 19 20 20 21 21 22 23 23 24 25 25 25 26 26 27 27 28 28
11 10 8 7 8 7 7 8 8 8 8 6 5 4 5 6 7 8 8 10 11 12 12 13 14 15 16 17 18 18 19 20 20 21 22 23 23 24 24 24 25 26 26 27 27 28 29 29 30
10 9 9 10 8 6 6 7 9 9 9 7 6 5 5 6 6 6 7 8 10 11 12 13 14 15 16 17 18 19 20 21 21 22 23 24 25 25 25 25 26 27 28 28 29 30 30 31 32
10 9 12 13 12 5 7 7 9 10 10 10 7 6 6 5 5 5 7 8 10 11 13 13 14 15 16 17 18 20 21 22 23 24 25 26 27 27 27 27 28 29 29 30 31 32 33 33 34
10 8 9 11 12 9 6 7 10 11 10 9 8 7 6 6 6 7 8 9 11 12 13 14 14 15 17 18 20 21 22 23 24 25 26 27 28 29 30 31 31 32 33 34 34 35 35 36 36
9 7 8 10 10 8 5 6 9 10 11 10 10 9 8 8 8 9 9 10 11 12 13 14 16 17 18 19 20 22 23 24 25 27 28 29 30 32 32 33 34 35 35 36 36 37 38 38 38
8 7 7 7 8 11 9 5 9 12 13 12 12 11 10 10 10 11 12 12 13 13 14 16 17 18 20 21 22 23 23 25 26 28 30 31 32 33 34 35 36 36 37 38 38 38 39 39 39
9 7 7 8 8 10 12 9 11 13 15 15 14 13 12 12 12 12 13 14 15 15 16 16 18 19 20 21 22 24 25 27 28 30 31 32 33 34 35 36 37 37 38 38 38 38 39 39 39
11 9 9 8 7 8 11 13 13 14 17 17 16 15 14 14 14 15 14 15 16 16 17 17 18 19 20 21 23 24 26 28 30 32 33 34 35 36 37 37 38 38 39 38 38 38 37 37 37
Wind_Direction
344 340 332 314 296 281 258 86 310 281 277 266 268 266 270 270 267 281 298 297 310 311 313 304 300 304 308 306 305 308 308 304 304 301 295 295 297 300 301 298 296 295 295 300 308 317 327 334 342
311 303 299 297 293 299 312 45 288 286 287 277 269 266 268 273 280 282 286 292 305 304 310 306 305 306 307 306 303 304 303 300 296 295 292 291 292 293 293 292 290 288 286 286 289 293 299 304 307
291 289 288 290 293 309 316 321 290 290 286 278 269 266 270 277 280 283 288 291 290 295 304 305 304 309 310 307 303 301 302 299 294 291 289 289 289 289 289 290 288 287 287 286 285 287 291 292 291
284 281 279 276 276 282 287 283 281 275 273 270 270 266 267 274 278 280 282 286 290 295 302 305 306 308 309 308 305 302 301 299 296 291 289 289 288 288 286 287 287 287 287 286 284 284 286 287 285
279 276 275 275 280 274 269 273 272 266 262 261 262 260 260 265 272 278 280 281 286 291 299 305 307 306 306 306 304 301 300 297 295 294 291 289 288 288 284 284 283 283 283 283 282 283 282 283 283
274 270 267 272 282 277 272 271 269 265 251 254 258 259 262 263 270 277 280 286 286 291 301 307 307 307 305 305 304 302 298 294 292 292 291 291 290 289 285 281 279 278 279 279 279 280 280 280 279
269 267 263 261 270 272 270 271 266 263 256 258 261 260 257 260 265 275 285 291 291 300 304 306 305 305 305 303 303 299 295 291 290 292 291 290 289 287 285 282 277 275 275 276 276 277 277 276 274
268 265 263 266 273 272 269 271 266 259 261 256 258 262 253 263 261 272 282 288 290 302 305 306 307 307 306 304 302 299 296 292 290 289 290 290 288 285 280 280 277 272 272 272 273 274 274 272 271
265 259 260 260 252 253 257 261 264 259 255 254 254 256 258 266 266 273 283 288 292 297 303 306 306 307 306 303 300 297 296 293 289 288 287 286 285 280 277 275 275 270 268 268 269 270 271 270 269
261 251 253 249 245 246 252 259 264 264 255 249 244 248 256 262 265 270 278 286 292 298 303 309 304 305 306 302 297 296 297 293 289 286 284 284 284 283 278 276 276 272 266 265 265 267 268 267 267
268 255 251 253 254 254 255 261 265 259 252 247 238 243 247 253 260 267 273 281 288 294 301 303 303 306 306 302 298 296 297 293 288 287 288 287 285 283 279 280 278 274 267 263 266 267 267 266 266
293 276 268 266 266 266 264 261 259 257 253 255 254 237 242 252 257 259 268 277 282 291 299 303 303 304 305 303 299 297 296 292 288 288 288 287 287 286 283 281 279 277 276 273 276 276 271 269 268
313 303 292 286 283 279 270 264 260 261 257 262 261 246 246 253 260 263 264 271 279 287 295 299 299 300 300 300 298 296 296 292 290 289 290 289 288 287 286 285 281 278 279 280 281 279 274 268 266
318 299 291 291 287 285 279 267 259 260 261 260 263 254 253 252 259 260 262 271 277 286 291 294 296 298 297 297 298 296 296 295 290 290 291 290 288 288 286 286 284 283 280 280 282 281 278 272 268
333 316 302 302 313 299 287 275 265 254 257 258 257 253 248 251 260 265 273 274 283 287 289 293 297 297 296 296 297 295 297 296 295 293 291 292 290 289 287 287 287 287 284 282 283 282 280 276 272
343 322 317 319 318 301 291 281 267 255 253 255 251 249 248 255 259 267 269 276 284 287 288 294 298 298 297 295 296 298 297 297 297 296 296 293 291 290 289 290 288 289 289 285 283 281 280 277 275
339 330 326 325 316 303 294 283 270 254 251 252 252 253 255 255 266 271 271 275 283 289 292 295 296 298 297 296 296 298 299 300 299 300 302 298 294 294 292 291 292 290 289 287 284 281 280 277 275
332 322 316 321 321 313 307 300 289 271 259 248 252 249 261 262 270 272 272 277 282 288 293 296 295 298 300 299 299 300 298 301 304 305 304 302 300 298 296 295 294 292 290 288 285 282 280 278 276
308 302 303 312 322 318 318 324 324 306 255 236 245 252 258 267 270 269 275 282 285 288 291 295 298 299 302 302 301 304 305 304 306 307 305 304 304 301 298 297 296 294 291 289 287 285 282 280 278
314 305 309 321 328 325 319 313 329 328 301 258 258 257 262 271 272 271 276 282 282 285 291 295 299 303 305 303 305 308 309 309 310 310 309 308 307 305 303 301 298 297 294 291 289 287 284 282 279
312 307 310 316 324 330 328 332 335 335 339 306 277 266 266 267 269 272 277 283 286 288 293 298 304 308 311 311 312 313 314 315 315 314 313 311 310 308 307 304 302 299 297 295 292 289 287 285 282
306 307 312 319 322 325 339 346 350 353 350 341 305 282 271 270 268 269 275 282 287 293 299 305 311 314 316 320 321 319 318 317 317 317 316 314 312 311 309 306 304 301 299 297 294 292 289 287 284
303 305 305 306 298 305 333 332 342 344 338 343 328 307 291 281 272 272 281 289 295 301 307 311 315 319 321 323 324 323 321 320 319 319 318 317 314 312 310 308 305 302 300 298 295 293 290 288 286
308 303 305 292 292 287 327 334 340 338 334 329 323 309 295 290 286 289 296 305 311 313 316 318 319 321 323 324 324 324 323 323 322 321 320 318 316 314 312 308 305 303 300 298 296 294 292 290 288
316 316 322 332 344 350 356 345 338 340 342 339 332 320 313 311 310 311 313 317 318 319 322 324 325 326 327 328 328 328 327 325 323 321 320 318 316 315 313 310 307 304 301 299 297 294 292 290 288
309 310 318 327 335 341 350 338 338 340 341 340 333 330 330 322 323 326 326 325 323 325 326 329 331 331 332 331 330 329 328 327 325 323 321 319 317 315 314 312 309 306 304 302 299 296 293 290 288
292 289 297 306 320 303 290 318 332 339 340 339 339 339 341 340 339 335 332 331 329 330 332 334 334 333 333 332 331 330 329 328 327 325 323 321 318 316 314 311 309 307 305 302 300 297 294 291 288
289 270 269 283 311 314 292 259 306 333 336 334 336 339 340 339 339 337 336 335 335 335 335 334 334 333 332 331 330 330 329 328 327 326 324 322 319 317 315 313 311 309 306 303 300 297 294 291 288
294 283 269 255 251 286 309 308 308 323 325 325 330 332 333 333 332 333 333 332 332 331 330 331 331 331 331 331 330 330 330 329 328 327 325 323 320 318 317 315 313 311 310 307 303 300 296 293 289
266 266 267 271 267 270 291 300 303 313 317 320 324 325 326 326 324 323 325 326 325 325 325 327 327 328 329 329 329 329 329 328 328 327 326 325 323 321 319 318 316 314 312 309 306 303 299 295 292
Height
5916 5915 5915 5914 5914 5912 5906 5905 5912 5912 5910 5910 5909 5908 5907 5907 5908 5909 5906 5906 5908 5908 5908 5908 5908 5908 5908 5908 5908 5908 5908 5908 5908 5907 5907 5907 5906 5906 5906 5905 5905 5905 5904 5904 5904 5904 5903 5903 5903
5915 5915 5915 5914 5913 5908 5904 5905 5910 5911 5910 5909 5908 5907 5907 5907 5907 5907 5906 5906 5907 5907 5908 5908 5908 5908 5908 5908 5908 5908 5907 5907 5907 5907 5906 5906 5906 5906 5905 5905 5905 5905 5904 5904 5904 5904 5904 5903 5903
5914 5913 5914 5913 5912 5908 5906 5907 5910 5910 5909 5908 5907 5906 5906 5906 5906 5906 5905 5906 5906 5906 5906 5906 5906 5907 5907 5907 5907 5907 5906 5906 5906 5906 5906 5905 5905 5905 5905 5905 5904 5904 5904 5904 5903 5903 5903 5903 5903
5911 5912 5912 5913 5911 5911 5909 5908 5909 5909 5908 5906 5904 5904 5904 5904 5905 5905 5905 5905 5905 5905 5905 5905 5905 5906 5906 5906 5906 5905 5905 5905 5905 5905 5905 5904 5904 5904 5904 5904 5903 5903 5903 5903 5903 5902 5902 5902 5902
5909 5910 5910 5909 5908 5908 5908 5905 5907 5906 5905 5902 5902 5901 5901 5902 5902 5903 5903 5903 5904 5904 5904 5904 5904 5904 5904 5904 5904 5904 5904 5903 5903 5903 5903 5903 5903 5903 5902 5902 5902 5902 5902 5902 5901 5901 5901 5901 5901
5906 5907 5907 5907 5908 5907 5904 5902 5905 5903 5900 5898 5898 5897 5897 5898 5900 5900 5901 5902 5902 5903 5903 5903 5903 5903 5903 5903 5902 5902 5902 5902 5901 5901 5901 5901 5901 5901 5900 5900 5900 5900 5900 5900 5900 5899 5899 5899 5899
5903 5903 5903 5904 5906 5905 5902 5899 5901 5900 5896 5895 5894 5894 5894 5896 5897 5899 5899 5899 5900 5901 5901 5901 5901 5901 5901 5901 5901 5900 5900 5900 5899 5899 5899 5898 5898 5898 5898 5898 5897 5897 5897 5897 5897 5897 5897 5897 5897
5899 5900 5900 5903 5904 5903 5899 5897 5897 5897 5895 5893 5892 5890 5889 5892 5894 5896 5897 5897 5898 5899 5899 5899 5899 5899 5899 5898 5898 5897 5897 5897 5896 5896 5896 5895 5895 5894 5894 5894 5894 5894 5894 5894 5894 5895 5895 5894 5894
5895 5897 5898 5900 5900 5898 5895 5893 5892 5892 5890 5889 5887 5887 5888 5890 5891 5893 5895 5895 5896 5896 5895 5896 5896 5896 5896 5896 5895 5894 5894 5893 5893 5893 5892 5892 5891 5890 5889 5889 5889 5890 5890 5890 5891 5891 5891 5891 5891
5891 5892 5894 5894 5892 5891 5889 5888 5887 5886 5883 5880 5878 5882 5886 5887 5890 5891 5892 5893 5893 5892 5892 5892 5893 5893 5894 5893 5892 5892 5891 5890 5889 5889 5888 5888 5887 5886 5885 5885 5885 5885 5885 5886 5886 5887 5887 5888 5888
5888 5888 5888 5887 5886 5885 5885 5884 5883 5880 5877 5869 5868 5875 5880 5885 5887 5888 5889 5890 5890 5889 5889 5890 5890 5890 5890 5890 5889 5888 5887 5886 5885 5885 5884 5883 5882 5881 5881 5881 5881 5880 5880 5881 5882 5882 5883 5883 5883
5885 5884 5883 5882 5882 5881 5881 5879 5877 5872 5872 5868 5867 5870 5878 5882 5882 5883 5885 5887 5887 5886 5887 5887 5887 5887 5887 5886 5885 5884 5883 5882 5881 5880 5879 5878 5878 5877 5877 5877 5877 5876 5876 5876 5877 5877 5878 5878 5879
5883 5882 5881 5879 5878 5877 5876 5874 5872 5867 5865 5865 5869 5871 5874 5877 5877 5879 5881 5883 5884 5884 5884 5884 5884 5884 5883 5882 5881 5880 5879 5878 5877 5876 5874 5874 5874 5873 5872 5872 5871 5871 5871 5871 5872 5872 5872 5873 5873
5881 5880 5878 5876 5875 5873 5872 5870 5868 5864 5862 5862 5866 5869 5871 5871 5872 5872 5876 5878 5879 5880 5880 5880 5880 5880 5879 5878 5877 5876 5874 5873 5872 5871 5870 5869 5869 5868 5868 5868 5867 5867 5867 5867 5867 5867 5867 5867 5867
5878 5877 5874 5873 5872 5870 5868 5865 5864 5860 5861 5862 5863 5865 5867 5867 5868 5869 5873 5874 5875 5876 5877 5877 5877 5876 5875 5874 5873 5872 5870 5868 5867 5867 5867 5866 5865 5864 5864 5863 5863 5863 5862 5862 5861 5861 5861 5862 5862
5877 5875 5873 5871 5869 5867 5866 5863 5860 5858 5858 5860 5860 5863 5863 5866 5865 5868 5870 5871 5872 5873 5873 5874 5873 5872 5871 5870 5869 5868 5867 5865 5864 5863 5863 5862 5861 5860 5859 5859 5859 5858 5857 5857 5856 5856 5856 5856 5856
5876 5874 5871 5869 5868 5865 5863 5859 5857 5855 5854 5857 5858 5861 5861 5863 5864 5865 5867 5868 5869 5870 5870 5870 5869 5869 5867 5866 5865 5864 5863 5862 5861 5860 5859 5858 5857 5856 5855 5854 5854 5853 5852 5852 5851 5850 5850 5850 5850
5878 5876 5873 5870 5868 5864 5861 5856 5852 5850 5851 5855 5859 5860 5860 5862 5863 5864 5865 5865 5866 5868 5868 5867 5867 5866 5864 5863 5862 5861 5860 5859 5857 5856 5855 5854 5853 5852 5850 5849 5849 5848 5847 5846 5845 5844 5844 5844 5844
5879 5876 5873 5871 5869 5864 5860 5856 5853 5849 5850 5854 5857 5859 5859 5860 5861 5862 5863 5864 5865 5865 5865 5865 5864 5863 5861 5860 5859 5857 5856 5855 5854 5853 5851 5850 5849 5847 5846 5844 5843 5842 5841 5840 5839 5838 5838 5837 5837
5877 5875 5872 5870 5868 5864 5861 5857 5854 5853 5852 5854 5857 5858 5858 5860 5860 5861 5862 5863 5863 5863 5863 5863 5861 5860 5859 5857 5856 5855 5853 5851 5850 5849 5847 5846 5844 5842 5841 5840 5838 5836 5835 5834 5833 5832 5831 5831 5830
5876 5874 5871 5870 5867 5864 5860 5857 5855 5855 5854 5854 5856 5857 5858 5858 5859 5860 5860 5861 5861 5861 5861 5860 5859 5858 5856 5854 5853 5851 5850 5848 5847 5845 5843 5842 5840 5838 5836 5835 5833 5831 5829 5828 5827 5826 5825 5824 5823
5875 5873 5870 5868 5865 5863 5862 5859 5857 5856 5856 5855 5855 5855 5856 5856 5857 5858 5858 5859 5859 5859 5859 5858 5857 5855 5854 5852 5850 5848 5847 5845 5843 5841 5839 5837 5835 5834 5832 5830 5827 5825 5824 5822 5821 5819 5818 5817 5816
5873 5871 5869 5866 5864 5863 5862 5860 5858 5857 5857 5855 5854 5854 5855 5855 5855 5855 5856 5857 5857 5857 5856 5856 5854 5853 5851 5849 5847 5846 5843 5842 5840 5837 5835 5833 5831 5829 5827 5824 5822 5820 5818 5816 5814 5812 5811 5809 5808
5872 5870 5867 5863 5861 5860 5861 5861 5860 5858 5857 5856 5855 5854 5854 5854 5854 5854 5855 5855 5855 5854 5854 5853 5852 5850 5848 5846 5845 5843 5840 5838 5836 5833 5831 5829 5826 5824 5822 5819 5817 5814 5812 5809 5807 5805 5803 5801 5800
5870 5869 5866 5862 5860 5859 5861 5862 5861 5858 5858 5856 5854 5854 5854 5853 5852 5853 5854 5853 5853 5852 5851 5850 5849 5847 5845 5844 5842 5839 5837 5835 5832 5830 5827 5824 5821 5819 5816 5813 5810 5808 5805 5802 5799 5797 5795 5792 5791
5869 5868 5867 5865 5863 5861 5860 5861 5860 5859 5858 5857 5855 5854 5853 5852 5852 5852 5852 5851 5851 5850 5849 5847 5846 5844 5843 5841 5839 5836 5834 5831 5828 5826 5823 5820 5816 5813 5810 5806 5803 5800 5797 5794 5791 5788 5785 5783 5781
5867 5867 5867 5865 5863 5861 5860 5860 5859 5858 5858 5857 5855 5853 5852 5851 5851 5850 5850 5849 5849 5848 5846 5845 5843 5842 5840 5838 5836 5833 5830 5827 5824 5821 5818 5814 5811 5807 5803 5799 5796 5792 5788 5784 5781 5778 5775 5773 5770
5865 5865 5866 5864 5863 5861 5857 5856 5857 5857 5857 5856 5855 5853 5851 5850 5849 5849 5848 5847 5846 5845 5844 5842 5841 5839 5837 5835 5832 5830 5827 5824 5821 5817 5813 5809 5805 5800 5796 5792 5787 5783 5779 5774 5771 5767 5764 5761 5759
5862 5863 5863 5863 5862 5861 5857 5857 5855 5856 5856 5855 5853 5852 5851 5850 5849 5848 5847 5845 5844 5843 5842 5840 5839 5837 5834 5832 5829 5826 5823 5820 5817 5812 5808 5804 5799 5794 5789 5784 5779 5774 5769 5764 5760 5756 5753 5750 5747
5860 5860 5861 5861 5861 5860 5859 5860 5854 5855 5854 5853 5852 5851 5850 5849 5847 5846 5845 5844 5843 5841 5840 5838 5836 5834 5831 5829 5826 5823 5819 5816 5812 5807 5802 5797 5792 5786 5781 5775 5770 5765 5759 5754 5750 5745 5742 5738 5735